daily pastebin goal
50%
SHARE
TWEET

Untitled

a guest Aug 10th, 2018 63 Never
Not a member of Pastebin yet? Sign Up, it unlocks many cool features!
  1. find . -type d -print0 | while read -d '' -r dir; do     files=("$dir"/*);     printf "%5d files in directory %s\n" "${#files[@]}" "$dir"; done | grep /1533837600
  2.    37 files in directory ./michigan/rh925/1533837600
  3.    37 files in directory ./michigan/rh2m/1533837600
  4.    37 files in directory ./michigan/gust_mph/1533837600
  5.    37 files in directory ./michigan/t500/1533837600
  6.    37 files in directory ./michigan/t2m_f/1533837600
  7.    32 files in directory ./michigan/uv500_stream/1533837600
  8.    37 files in directory ./michigan/dew2m_f/1533837600
  9.    22 files in directory ./michigan/shear_850v200/1533837600
  10.    37 files in directory ./michigan/wnd10m_stream/1533837600
  11.    36 files in directory ./michigan/uv300_stream/1533837600
  12.    37 files in directory ./michigan/t925/1533837600
  13.    37 files in directory ./michigan/rh200/1533837600
  14.    37 files in directory ./michigan/rh300/1533837600
  15.    37 files in directory ./michigan/gust_kt/1533837600
  16.    37 files in directory ./michigan/rh500/1533837600
  17.    37 files in directory ./michigan/rh700/1533837600
  18.    37 files in directory ./michigan/t850/1533837600
  19.    37 files in directory ./michigan/t300/1533837600
  20.    37 files in directory ./michigan/t700/1533837600
  21.    35 files in directory ./michigan/uv200_stream/1533837600
  22.    37 files in directory ./michigan/cape/1533837600
  23.    35 files in directory ./michigan/uv250_stream/1533837600
  24.    34 files in directory ./michigan/uv700_stream/1533837600
  25.    37 files in directory ./michigan/apparent_temperature_f/1533837600
  26.    37 files in directory ./michigan/rh850/1533837600
  27.    37 files in directory ./michigan/pwat/1533837600
  28.    37 files in directory ./michigan/uv850_stream/1533837600
  29.    31 files in directory ./michigan/refc_ptype/1533837600
  30.    37 files in directory ./mw/rh925/1533837600
  31.    37 files in directory ./mw/rh2m/1533837600
  32.    37 files in directory ./mw/gust_mph/1533837600
  33.    37 files in directory ./mw/t500/1533837600
  34.    37 files in directory ./mw/t2m_f/1533837600
  35.    30 files in directory ./mw/uv500_stream/1533837600
  36.    37 files in directory ./mw/dew2m_f/1533837600
  37.    37 files in directory ./mw/shear_850v200/1533837600
  38.    34 files in directory ./mw/wnd10m_stream/1533837600
  39.    31 files in directory ./mw/uv300_stream/1533837600
  40.    37 files in directory ./mw/t925/1533837600
  41.    37 files in directory ./mw/rh200/1533837600
  42.    37 files in directory ./mw/rh300/1533837600
  43.    37 files in directory ./mw/gust_kt/1533837600
  44.    37 files in directory ./mw/rh500/1533837600
  45.    37 files in directory ./mw/rh700/1533837600
  46.    37 files in directory ./mw/t850/1533837600
  47.    37 files in directory ./mw/t300/1533837600
  48.    37 files in directory ./mw/t700/1533837600
  49.    32 files in directory ./mw/uv200_stream/1533837600
  50.    37 files in directory ./mw/cape/1533837600
  51.    31 files in directory ./mw/uv250_stream/1533837600
  52.    37 files in directory ./mw/uv700_stream/1533837600
  53.    37 files in directory ./mw/apparent_temperature_f/1533837600
  54.    37 files in directory ./mw/rh850/1533837600
  55.    37 files in directory ./mw/pwat/1533837600
  56.    33 files in directory ./mw/uv850_stream/1533837600
  57.    34 files in directory ./mw/refc_ptype/1533837600
  58.    37 files in directory ./iowa/rh925/1533837600
  59.    37 files in directory ./iowa/rh2m/1533837600
  60.    37 files in directory ./iowa/gust_mph/1533837600
  61.    37 files in directory ./iowa/t500/1533837600
  62.    37 files in directory ./iowa/t2m_f/1533837600
  63.    37 files in directory ./iowa/uv500_stream/1533837600
  64.    37 files in directory ./iowa/dew2m_f/1533837600
  65.    37 files in directory ./iowa/wnd10m_stream/1533837600
  66.    37 files in directory ./iowa/uv300_stream/1533837600
  67.    37 files in directory ./iowa/t925/1533837600
  68.    37 files in directory ./iowa/rh200/1533837600
  69.    37 files in directory ./iowa/rh300/1533837600
  70.    37 files in directory ./iowa/gust_kt/1533837600
  71.    37 files in directory ./iowa/rh500/1533837600
  72.    37 files in directory ./iowa/rh700/1533837600
  73.    37 files in directory ./iowa/t850/1533837600
  74.    37 files in directory ./iowa/t300/1533837600
  75.    37 files in directory ./iowa/t700/1533837600
  76.    35 files in directory ./iowa/uv200_stream/1533837600
  77.    37 files in directory ./iowa/cape/1533837600
  78.    36 files in directory ./iowa/uv250_stream/1533837600
  79.    37 files in directory ./iowa/uv700_stream/1533837600
  80.    37 files in directory ./iowa/apparent_temperature_f/1533837600
  81.    37 files in directory ./iowa/rh850/1533837600
  82.    37 files in directory ./iowa/pwat/1533837600
  83.    37 files in directory ./iowa/uv850_stream/1533837600
  84.    37 files in directory ./iowa/refc_ptype/1533837600
  85.    21 files in directory ./conus/z500_barbs/1533837600
  86.    37 files in directory ./conus/rh925/1533837600
  87.    37 files in directory ./conus/rh2m/1533837600
  88.    37 files in directory ./conus/gust_mph/1533837600
  89.    37 files in directory ./conus/t500/1533837600
  90.    37 files in directory ./conus/t2m_f/1533837600
  91.    37 files in directory ./conus/uv500_stream/1533837600
  92.    37 files in directory ./conus/dew2m_f/1533837600
  93.    37 files in directory ./conus/shear_850v200/1533837600
  94.    37 files in directory ./conus/z500/1533837600
  95.    37 files in directory ./conus/wnd10m_stream/1533837600
  96.    37 files in directory ./conus/uv300_stream/1533837600
  97.    37 files in directory ./conus/t925/1533837600
  98.    37 files in directory ./conus/rh200/1533837600
  99.    37 files in directory ./conus/rh300/1533837600
  100.    37 files in directory ./conus/gust_kt/1533837600
  101.    37 files in directory ./conus/rh500/1533837600
  102.    37 files in directory ./conus/rh700/1533837600
  103.    37 files in directory ./conus/t850/1533837600
  104.    37 files in directory ./conus/t300/1533837600
  105.    37 files in directory ./conus/t700/1533837600
  106.    37 files in directory ./conus/uv200_stream/1533837600
  107.    37 files in directory ./conus/cape/1533837600
  108.    37 files in directory ./conus/uv250_stream/1533837600
  109.    36 files in directory ./conus/uv700_stream/1533837600
  110.    37 files in directory ./conus/apparent_temperature_f/1533837600
  111.    37 files in directory ./conus/rh850/1533837600
  112.    37 files in directory ./conus/pwat/1533837600
  113.    37 files in directory ./conus/uv850_stream/1533837600
  114.    37 files in directory ./houston/rh925/1533837600
  115.    37 files in directory ./houston/rh2m/1533837600
  116.    37 files in directory ./houston/gust_mph/1533837600
  117.    37 files in directory ./houston/t500/1533837600
  118.    37 files in directory ./houston/t2m_f/1533837600
  119.    37 files in directory ./houston/dew2m_f/1533837600
  120.    37 files in directory ./houston/wnd10m_stream/1533837600
  121.    37 files in directory ./houston/t925/1533837600
  122.    37 files in directory ./houston/rh200/1533837600
  123.    37 files in directory ./houston/rh300/1533837600
  124.    37 files in directory ./houston/gust_kt/1533837600
  125.    37 files in directory ./houston/rh500/1533837600
  126.    37 files in directory ./houston/rh700/1533837600
  127.    37 files in directory ./houston/t850/1533837600
  128.    37 files in directory ./houston/t300/1533837600
  129.    37 files in directory ./houston/t700/1533837600
  130.    37 files in directory ./houston/cape/1533837600
  131.    37 files in directory ./houston/uv700_stream/1533837600
  132.    37 files in directory ./houston/apparent_temperature_f/1533837600
  133.    37 files in directory ./houston/rh850/1533837600
  134.    37 files in directory ./houston/pwat/1533837600
  135.    37 files in directory ./houston/uv850_stream/1533837600
  136.    37 files in directory ./houston/refc_ptype/1533837600
  137.    37 files in directory ./florida/z500_barbs/1533837600
  138.    37 files in directory ./florida/rh925/1533837600
  139.    37 files in directory ./florida/rh2m/1533837600
  140.    37 files in directory ./florida/gust_mph/1533837600
  141.    37 files in directory ./florida/t500/1533837600
  142.    37 files in directory ./florida/t2m_f/1533837600
  143.    37 files in directory ./florida/uv500_stream/1533837600
  144.    37 files in directory ./florida/dew2m_f/1533837600
  145.    37 files in directory ./florida/shear_850v200/1533837600
  146.    37 files in directory ./florida/z500/1533837600
  147.    35 files in directory ./florida/wnd10m_stream/1533837600
  148.    37 files in directory ./florida/uv300_stream/1533837600
  149.    37 files in directory ./florida/t925/1533837600
  150.    37 files in directory ./florida/rh200/1533837600
  151.    37 files in directory ./florida/rh300/1533837600
  152.    37 files in directory ./florida/gust_kt/1533837600
  153.    37 files in directory ./florida/rh500/1533837600
  154.    37 files in directory ./florida/rh700/1533837600
  155.    37 files in directory ./florida/t850/1533837600
  156.    37 files in directory ./florida/t300/1533837600
  157.    37 files in directory ./florida/t700/1533837600
  158.    37 files in directory ./florida/uv200_stream/1533837600
  159.    37 files in directory ./florida/cape/1533837600
  160.    37 files in directory ./florida/uv250_stream/1533837600
  161.    37 files in directory ./florida/uv700_stream/1533837600
  162.    37 files in directory ./florida/apparent_temperature_f/1533837600
  163.    37 files in directory ./florida/rh850/1533837600
  164.    37 files in directory ./florida/pwat/1533837600
  165.    37 files in directory ./florida/uv850_stream/1533837600
  166.    36 files in directory ./florida/refc_ptype/1533837600
  167.    37 files in directory ./swus/z500_barbs/1533837600
  168.    37 files in directory ./swus/rh925/1533837600
  169.    37 files in directory ./swus/rh2m/1533837600
  170.    37 files in directory ./swus/gust_mph/1533837600
  171.    37 files in directory ./swus/t500/1533837600
  172.    37 files in directory ./swus/t2m_f/1533837600
  173.    29 files in directory ./swus/uv500_stream/1533837600
  174.    37 files in directory ./swus/dew2m_f/1533837600
  175.    35 files in directory ./swus/shear_850v200/1533837600
  176.    37 files in directory ./swus/z500/1533837600
  177.    33 files in directory ./swus/wnd10m_stream/1533837600
  178.    25 files in directory ./swus/uv300_stream/1533837600
  179.    37 files in directory ./swus/t925/1533837600
  180.    37 files in directory ./swus/rh200/1533837600
  181.    37 files in directory ./swus/rh300/1533837600
  182.    37 files in directory ./swus/gust_kt/1533837600
  183.    37 files in directory ./swus/rh500/1533837600
  184.    37 files in directory ./swus/rh700/1533837600
  185.    37 files in directory ./swus/t850/1533837600
  186.    37 files in directory ./swus/t300/1533837600
  187.    37 files in directory ./swus/t700/1533837600
  188.    34 files in directory ./swus/uv200_stream/1533837600
  189.    37 files in directory ./swus/cape/1533837600
  190.    26 files in directory ./swus/uv250_stream/1533837600
  191.    32 files in directory ./swus/uv700_stream/1533837600
  192.    37 files in directory ./swus/apparent_temperature_f/1533837600
  193.    37 files in directory ./swus/rh850/1533837600
  194.    37 files in directory ./swus/pwat/1533837600
  195.    36 files in directory ./swus/uv850_stream/1533837600
  196.    35 files in directory ./swus/refc_ptype/1533837600
  197.    37 files in directory ./colorado/rh925/1533837600
  198.    37 files in directory ./colorado/rh2m/1533837600
  199.    37 files in directory ./colorado/gust_mph/1533837600
  200.    37 files in directory ./colorado/t500/1533837600
  201.    37 files in directory ./colorado/t2m_f/1533837600
  202.    37 files in directory ./colorado/uv500_stream/1533837600
  203.    37 files in directory ./colorado/dew2m_f/1533837600
  204.    37 files in directory ./colorado/shear_850v200/1533837600
  205.    37 files in directory ./colorado/wnd10m_stream/1533837600
  206.    37 files in directory ./colorado/uv300_stream/1533837600
  207.    37 files in directory ./colorado/t925/1533837600
  208.    37 files in directory ./colorado/rh200/1533837600
  209.    37 files in directory ./colorado/rh300/1533837600
  210.    37 files in directory ./colorado/gust_kt/1533837600
  211.    37 files in directory ./colorado/rh500/1533837600
  212.    37 files in directory ./colorado/rh700/1533837600
  213.    37 files in directory ./colorado/t850/1533837600
  214.    37 files in directory ./colorado/t300/1533837600
  215.    37 files in directory ./colorado/t700/1533837600
  216.    34 files in directory ./colorado/uv200_stream/1533837600
  217.    37 files in directory ./colorado/cape/1533837600
  218.    36 files in directory ./colorado/uv250_stream/1533837600
  219.    37 files in directory ./colorado/uv700_stream/1533837600
  220.    37 files in directory ./colorado/apparent_temperature_f/1533837600
  221.    37 files in directory ./colorado/rh850/1533837600
  222.    37 files in directory ./colorado/pwat/1533837600
  223.    36 files in directory ./colorado/uv850_stream/1533837600
  224.    37 files in directory ./colorado/refc_ptype/1533837600
  225.    37 files in directory ./maine/rh925/1533837600
  226.    37 files in directory ./maine/rh2m/1533837600
  227.    37 files in directory ./maine/gust_mph/1533837600
  228.    37 files in directory ./maine/t500/1533837600
  229.    37 files in directory ./maine/t2m_f/1533837600
  230.    37 files in directory ./maine/uv500_stream/1533837600
  231.    37 files in directory ./maine/dew2m_f/1533837600
  232.    37 files in directory ./maine/shear_850v200/1533837600
  233.    37 files in directory ./maine/wnd10m_stream/1533837600
  234.    37 files in directory ./maine/uv300_stream/1533837600
  235.    37 files in directory ./maine/t925/1533837600
  236.    37 files in directory ./maine/rh200/1533837600
  237.    37 files in directory ./maine/rh300/1533837600
  238.    37 files in directory ./maine/gust_kt/1533837600
  239.    37 files in directory ./maine/rh500/1533837600
  240.    37 files in directory ./maine/rh700/1533837600
  241.    37 files in directory ./maine/t850/1533837600
  242.    37 files in directory ./maine/t300/1533837600
  243.    37 files in directory ./maine/t700/1533837600
  244.    37 files in directory ./maine/uv200_stream/1533837600
  245.    37 files in directory ./maine/cape/1533837600
  246.    37 files in directory ./maine/uv250_stream/1533837600
  247.    36 files in directory ./maine/uv700_stream/1533837600
  248.    37 files in directory ./maine/apparent_temperature_f/1533837600
  249.    37 files in directory ./maine/rh850/1533837600
  250.    37 files in directory ./maine/pwat/1533837600
  251.    35 files in directory ./maine/uv850_stream/1533837600
  252.    37 files in directory ./maine/refc_ptype/1533837600
  253.    37 files in directory ./ma/rh925/1533837600
  254.    37 files in directory ./ma/rh2m/1533837600
  255.    37 files in directory ./ma/gust_mph/1533837600
  256.    37 files in directory ./ma/t500/1533837600
  257.    37 files in directory ./ma/t2m_f/1533837600
  258.    27 files in directory ./ma/uv500_stream/1533837600
  259.    37 files in directory ./ma/dew2m_f/1533837600
  260.    30 files in directory ./ma/shear_850v200/1533837600
  261.    36 files in directory ./ma/wnd10m_stream/1533837600
  262.    24 files in directory ./ma/uv300_stream/1533837600
  263.    37 files in directory ./ma/t925/1533837600
  264.    37 files in directory ./ma/rh200/1533837600
  265.    37 files in directory ./ma/rh300/1533837600
  266.    37 files in directory ./ma/gust_kt/1533837600
  267.    37 files in directory ./ma/rh500/1533837600
  268.    37 files in directory ./ma/rh700/1533837600
  269.    37 files in directory ./ma/t850/1533837600
  270.    37 files in directory ./ma/t300/1533837600
  271.    37 files in directory ./ma/t700/1533837600
  272.    29 files in directory ./ma/uv200_stream/1533837600
  273.    37 files in directory ./ma/cape/1533837600
  274.    30 files in directory ./ma/uv250_stream/1533837600
  275.    35 files in directory ./ma/uv700_stream/1533837600
  276.    37 files in directory ./ma/apparent_temperature_f/1533837600
  277.    37 files in directory ./ma/rh850/1533837600
  278.    37 files in directory ./ma/pwat/1533837600
  279.    31 files in directory ./ma/uv850_stream/1533837600
  280.    36 files in directory ./ma/refc_ptype/1533837600
  281.    37 files in directory ./se/z500_barbs/1533837600
  282.    37 files in directory ./se/rh925/1533837600
  283.    37 files in directory ./se/rh2m/1533837600
  284.    37 files in directory ./se/gust_mph/1533837600
  285.    37 files in directory ./se/t500/1533837600
  286.    37 files in directory ./se/t2m_f/1533837600
  287.    36 files in directory ./se/uv500_stream/1533837600
  288.    37 files in directory ./se/dew2m_f/1533837600
  289.    29 files in directory ./se/shear_850v200/1533837600
  290.    37 files in directory ./se/z500/1533837600
  291.    37 files in directory ./se/wnd10m_stream/1533837600
  292.    31 files in directory ./se/uv300_stream/1533837600
  293.    37 files in directory ./se/t925/1533837600
  294.    37 files in directory ./se/rh200/1533837600
  295.    37 files in directory ./se/rh300/1533837600
  296.    37 files in directory ./se/gust_kt/1533837600
  297.    37 files in directory ./se/rh500/1533837600
  298.    37 files in directory ./se/rh700/1533837600
  299.    37 files in directory ./se/t850/1533837600
  300.    37 files in directory ./se/t300/1533837600
  301.    37 files in directory ./se/t700/1533837600
  302.    34 files in directory ./se/uv200_stream/1533837600
  303.    37 files in directory ./se/cape/1533837600
  304.    36 files in directory ./se/uv250_stream/1533837600
  305.    37 files in directory ./se/uv700_stream/1533837600
  306.    37 files in directory ./se/apparent_temperature_f/1533837600
  307.    37 files in directory ./se/rh850/1533837600
  308.    37 files in directory ./se/pwat/1533837600
  309.    37 files in directory ./se/uv850_stream/1533837600
  310.    37 files in directory ./se/refc_ptype/1533837600
  311.    37 files in directory ./philly/rh925/1533837600
  312.    37 files in directory ./philly/rh2m/1533837600
  313.    37 files in directory ./philly/gust_mph/1533837600
  314.    37 files in directory ./philly/t500/1533837600
  315.    37 files in directory ./philly/t2m_f/1533837600
  316.    37 files in directory ./philly/dew2m_f/1533837600
  317.    37 files in directory ./philly/wnd10m_stream/1533837600
  318.    37 files in directory ./philly/t925/1533837600
  319.    37 files in directory ./philly/rh200/1533837600
  320.    37 files in directory ./philly/rh300/1533837600
  321.    37 files in directory ./philly/gust_kt/1533837600
  322.    37 files in directory ./philly/rh500/1533837600
  323.    37 files in directory ./philly/rh700/1533837600
  324.    37 files in directory ./philly/t850/1533837600
  325.    37 files in directory ./philly/t300/1533837600
  326.    37 files in directory ./philly/t700/1533837600
  327.    37 files in directory ./philly/cape/1533837600
  328.    37 files in directory ./philly/uv700_stream/1533837600
  329.    37 files in directory ./philly/apparent_temperature_f/1533837600
  330.    37 files in directory ./philly/rh850/1533837600
  331.    37 files in directory ./philly/pwat/1533837600
  332.    36 files in directory ./philly/uv850_stream/1533837600
  333.    36 files in directory ./philly/refc_ptype/1533837600
  334.    37 files in directory ./seattle/rh925/1533837600
  335.    37 files in directory ./seattle/rh2m/1533837600
  336.    37 files in directory ./seattle/gust_mph/1533837600
  337.    37 files in directory ./seattle/t500/1533837600
  338.    37 files in directory ./seattle/t2m_f/1533837600
  339.    37 files in directory ./seattle/dew2m_f/1533837600
  340.    37 files in directory ./seattle/wnd10m_stream/1533837600
  341.    37 files in directory ./seattle/t925/1533837600
  342.    37 files in directory ./seattle/rh200/1533837600
  343.    37 files in directory ./seattle/rh300/1533837600
  344.    37 files in directory ./seattle/gust_kt/1533837600
  345.    37 files in directory ./seattle/rh500/1533837600
  346.    37 files in directory ./seattle/rh700/1533837600
  347.    37 files in directory ./seattle/t850/1533837600
  348.    37 files in directory ./seattle/t300/1533837600
  349.    37 files in directory ./seattle/t700/1533837600
  350.    37 files in directory ./seattle/cape/1533837600
  351.    35 files in directory ./seattle/uv700_stream/1533837600
  352.    37 files in directory ./seattle/apparent_temperature_f/1533837600
  353.    37 files in directory ./seattle/rh850/1533837600
  354.    37 files in directory ./seattle/pwat/1533837600
  355.    37 files in directory ./seattle/uv850_stream/1533837600
  356.    37 files in directory ./seattle/refc_ptype/1533837600
  357.    37 files in directory ./detroit/rh925/1533837600
  358.    37 files in directory ./detroit/rh2m/1533837600
  359.    37 files in directory ./detroit/gust_mph/1533837600
  360.    37 files in directory ./detroit/t500/1533837600
  361.    37 files in directory ./detroit/t2m_f/1533837600
  362.    37 files in directory ./detroit/dew2m_f/1533837600
  363.    37 files in directory ./detroit/wnd10m_stream/1533837600
  364.    37 files in directory ./detroit/t925/1533837600
  365.    37 files in directory ./detroit/rh200/1533837600
  366.    37 files in directory ./detroit/rh300/1533837600
  367.    37 files in directory ./detroit/gust_kt/1533837600
  368.    37 files in directory ./detroit/rh500/1533837600
  369.    37 files in directory ./detroit/rh700/1533837600
  370.    37 files in directory ./detroit/t850/1533837600
  371.    37 files in directory ./detroit/t300/1533837600
  372.    37 files in directory ./detroit/t700/1533837600
  373.    37 files in directory ./detroit/cape/1533837600
  374.    37 files in directory ./detroit/uv700_stream/1533837600
  375.    37 files in directory ./detroit/apparent_temperature_f/1533837600
  376.    37 files in directory ./detroit/rh850/1533837600
  377.    37 files in directory ./detroit/pwat/1533837600
  378.    37 files in directory ./detroit/uv850_stream/1533837600
  379.    37 files in directory ./detroit/refc_ptype/1533837600
  380.    37 files in directory ./ky/rh925/1533837600
  381.    37 files in directory ./ky/rh2m/1533837600
  382.    37 files in directory ./ky/gust_mph/1533837600
  383.    37 files in directory ./ky/t500/1533837600
  384.    37 files in directory ./ky/t2m_f/1533837600
  385.    37 files in directory ./ky/uv500_stream/1533837600
  386.    37 files in directory ./ky/dew2m_f/1533837600
  387.    36 files in directory ./ky/shear_850v200/1533837600
  388.    37 files in directory ./ky/wnd10m_stream/1533837600
  389.    37 files in directory ./ky/uv300_stream/1533837600
  390.    37 files in directory ./ky/t925/1533837600
  391.    37 files in directory ./ky/rh200/1533837600
  392.    37 files in directory ./ky/rh300/1533837600
  393.    37 files in directory ./ky/gust_kt/1533837600
  394.    37 files in directory ./ky/rh500/1533837600
  395.    37 files in directory ./ky/rh700/1533837600
  396.    37 files in directory ./ky/t850/1533837600
  397.    37 files in directory ./ky/t300/1533837600
  398.    37 files in directory ./ky/t700/1533837600
  399.    37 files in directory ./ky/uv200_stream/1533837600
  400.    37 files in directory ./ky/cape/1533837600
  401.    37 files in directory ./ky/uv250_stream/1533837600
  402.    37 files in directory ./ky/uv700_stream/1533837600
  403.    37 files in directory ./ky/apparent_temperature_f/1533837600
  404.    37 files in directory ./ky/rh850/1533837600
  405.    37 files in directory ./ky/pwat/1533837600
  406.    35 files in directory ./ky/uv850_stream/1533837600
  407.    36 files in directory ./ky/refc_ptype/1533837600
  408.    32 files in directory ./gulf/z500_barbs/1533837600
  409.    37 files in directory ./gulf/rh925/1533837600
  410.    37 files in directory ./gulf/rh2m/1533837600
  411.    37 files in directory ./gulf/gust_mph/1533837600
  412.    37 files in directory ./gulf/t500/1533837600
  413.    37 files in directory ./gulf/t2m_f/1533837600
  414.    31 files in directory ./gulf/uv500_stream/1533837600
  415.    37 files in directory ./gulf/dew2m_f/1533837600
  416.    37 files in directory ./gulf/shear_850v200/1533837600
  417.    37 files in directory ./gulf/z500/1533837600
  418.    36 files in directory ./gulf/wnd10m_stream/1533837600
  419.    33 files in directory ./gulf/uv300_stream/1533837600
  420.    37 files in directory ./gulf/t925/1533837600
  421.    37 files in directory ./gulf/rh200/1533837600
  422.    37 files in directory ./gulf/rh300/1533837600
  423.    37 files in directory ./gulf/gust_kt/1533837600
  424.    37 files in directory ./gulf/rh500/1533837600
  425.    37 files in directory ./gulf/rh700/1533837600
  426.    37 files in directory ./gulf/t850/1533837600
  427.    37 files in directory ./gulf/t300/1533837600
  428.    37 files in directory ./gulf/t700/1533837600
  429.    31 files in directory ./gulf/uv200_stream/1533837600
  430.    37 files in directory ./gulf/cape/1533837600
  431.    34 files in directory ./gulf/uv250_stream/1533837600
  432.    34 files in directory ./gulf/uv700_stream/1533837600
  433.    37 files in directory ./gulf/apparent_temperature_f/1533837600
  434.    37 files in directory ./gulf/rh850/1533837600
  435.    37 files in directory ./gulf/pwat/1533837600
  436.    37 files in directory ./gulf/uv850_stream/1533837600
  437.    36 files in directory ./gulf/refc_ptype/1533837600
  438.    33 files in directory ./cw/z500_barbs/1533837600
  439.    37 files in directory ./cw/rh925/1533837600
  440.    37 files in directory ./cw/rh2m/1533837600
  441.    37 files in directory ./cw/gust_mph/1533837600
  442.    37 files in directory ./cw/t500/1533837600
  443.    37 files in directory ./cw/t2m_f/1533837600
  444.    37 files in directory ./cw/uv500_stream/1533837600
  445.    37 files in directory ./cw/dew2m_f/1533837600
  446.    37 files in directory ./cw/shear_850v200/1533837600
  447.    37 files in directory ./cw/z500/1533837600
  448.    37 files in directory ./cw/wnd10m_stream/1533837600
  449.    37 files in directory ./cw/uv300_stream/1533837600
  450.    37 files in directory ./cw/t925/1533837600
  451.    37 files in directory ./cw/rh200/1533837600
  452.    37 files in directory ./cw/rh300/1533837600
  453.    37 files in directory ./cw/gust_kt/1533837600
  454.    37 files in directory ./cw/rh500/1533837600
  455.    37 files in directory ./cw/rh700/1533837600
  456.    37 files in directory ./cw/t850/1533837600
  457.    37 files in directory ./cw/t300/1533837600
  458.    37 files in directory ./cw/t700/1533837600
  459.    37 files in directory ./cw/uv200_stream/1533837600
  460.    37 files in directory ./cw/cape/1533837600
  461.    37 files in directory ./cw/uv250_stream/1533837600
  462.    37 files in directory ./cw/uv700_stream/1533837600
  463.    37 files in directory ./cw/apparent_temperature_f/1533837600
  464.    37 files in directory ./cw/rh850/1533837600
  465.    37 files in directory ./cw/pwat/1533837600
  466.    37 files in directory ./cw/uv850_stream/1533837600
  467.    37 files in directory ./cw/refc_ptype/1533837600
  468.    37 files in directory ./minneapolis/rh925/1533837600
  469.    37 files in directory ./minneapolis/rh2m/1533837600
  470.    37 files in directory ./minneapolis/gust_mph/1533837600
  471.    37 files in directory ./minneapolis/t500/1533837600
  472.    37 files in directory ./minneapolis/t2m_f/1533837600
  473.    37 files in directory ./minneapolis/dew2m_f/1533837600
  474.    37 files in directory ./minneapolis/wnd10m_stream/1533837600
  475.    37 files in directory ./minneapolis/t925/1533837600
  476.    37 files in directory ./minneapolis/rh200/1533837600
  477.    37 files in directory ./minneapolis/rh300/1533837600
  478.    37 files in directory ./minneapolis/gust_kt/1533837600
  479.    37 files in directory ./minneapolis/rh500/1533837600
  480.    37 files in directory ./minneapolis/rh700/1533837600
  481.    37 files in directory ./minneapolis/t850/1533837600
  482.    37 files in directory ./minneapolis/t300/1533837600
  483.    37 files in directory ./minneapolis/t700/1533837600
  484.    37 files in directory ./minneapolis/cape/1533837600
  485.    37 files in directory ./minneapolis/uv700_stream/1533837600
  486.    37 files in directory ./minneapolis/apparent_temperature_f/1533837600
  487.    37 files in directory ./minneapolis/rh850/1533837600
  488.    37 files in directory ./minneapolis/pwat/1533837600
  489.    37 files in directory ./minneapolis/uv850_stream/1533837600
  490.    37 files in directory ./minneapolis/refc_ptype/1533837600
  491.    33 files in directory ./ecentus/z500_barbs/1533837600
  492.    37 files in directory ./ecentus/rh925/1533837600
  493.    37 files in directory ./ecentus/rh2m/1533837600
  494.    37 files in directory ./ecentus/gust_mph/1533837600
  495.    37 files in directory ./ecentus/t500/1533837600
  496.    37 files in directory ./ecentus/t2m_f/1533837600
  497.    37 files in directory ./ecentus/uv500_stream/1533837600
  498.    37 files in directory ./ecentus/dew2m_f/1533837600
  499.    37 files in directory ./ecentus/shear_850v200/1533837600
  500.    37 files in directory ./ecentus/z500/1533837600
  501.    26 files in directory ./ecentus/wnd10m_stream/1533837600
  502.    37 files in directory ./ecentus/uv300_stream/1533837600
  503.    37 files in directory ./ecentus/t925/1533837600
  504.    37 files in directory ./ecentus/rh200/1533837600
  505.    37 files in directory ./ecentus/rh300/1533837600
  506.    37 files in directory ./ecentus/gust_kt/1533837600
  507.    37 files in directory ./ecentus/rh500/1533837600
  508.    37 files in directory ./ecentus/rh700/1533837600
  509.    37 files in directory ./ecentus/t850/1533837600
  510.    37 files in directory ./ecentus/t300/1533837600
  511.    37 files in directory ./ecentus/t700/1533837600
  512.    37 files in directory ./ecentus/uv200_stream/1533837600
  513.    37 files in directory ./ecentus/cape/1533837600
  514.    37 files in directory ./ecentus/uv250_stream/1533837600
  515.    33 files in directory ./ecentus/uv700_stream/1533837600
  516.    37 files in directory ./ecentus/apparent_temperature_f/1533837600
  517.    37 files in directory ./ecentus/rh850/1533837600
  518.    37 files in directory ./ecentus/pwat/1533837600
  519.    28 files in directory ./ecentus/uv850_stream/1533837600
  520.    28 files in directory ./ecentus/refc_ptype/1533837600
  521.    37 files in directory ./boston/rh925/1533837600
  522.    37 files in directory ./boston/rh2m/1533837600
  523.    37 files in directory ./boston/gust_mph/1533837600
  524.    37 files in directory ./boston/t500/1533837600
  525.    37 files in directory ./boston/t2m_f/1533837600
  526.    37 files in directory ./boston/dew2m_f/1533837600
  527.    37 files in directory ./boston/wnd10m_stream/1533837600
  528.    37 files in directory ./boston/t925/1533837600
  529.    37 files in directory ./boston/rh200/1533837600
  530.    37 files in directory ./boston/rh300/1533837600
  531.    37 files in directory ./boston/gust_kt/1533837600
  532.    37 files in directory ./boston/rh500/1533837600
  533.    37 files in directory ./boston/rh700/1533837600
  534.    37 files in directory ./boston/t850/1533837600
  535.    37 files in directory ./boston/t300/1533837600
  536.    37 files in directory ./boston/t700/1533837600
  537.    37 files in directory ./boston/cape/1533837600
  538.    37 files in directory ./boston/uv700_stream/1533837600
  539.    37 files in directory ./boston/apparent_temperature_f/1533837600
  540.    37 files in directory ./boston/rh850/1533837600
  541.    37 files in directory ./boston/pwat/1533837600
  542.    36 files in directory ./boston/uv850_stream/1533837600
  543.    35 files in directory ./boston/refc_ptype/1533837600
  544.    37 files in directory ./neng/rh925/1533837600
  545.    37 files in directory ./neng/rh2m/1533837600
  546.    37 files in directory ./neng/gust_mph/1533837600
  547.    37 files in directory ./neng/t500/1533837600
  548.    37 files in directory ./neng/t2m_f/1533837600
  549.    37 files in directory ./neng/uv500_stream/1533837600
  550.    37 files in directory ./neng/dew2m_f/1533837600
  551.    34 files in directory ./neng/shear_850v200/1533837600
  552.    30 files in directory ./neng/wnd10m_stream/1533837600
  553.    37 files in directory ./neng/uv300_stream/1533837600
  554.    37 files in directory ./neng/t925/1533837600
  555.    37 files in directory ./neng/rh200/1533837600
  556.    37 files in directory ./neng/rh300/1533837600
  557.    37 files in directory ./neng/gust_kt/1533837600
  558.    37 files in directory ./neng/rh500/1533837600
  559.    37 files in directory ./neng/rh700/1533837600
  560.    37 files in directory ./neng/t850/1533837600
  561.    37 files in directory ./neng/t300/1533837600
  562.    37 files in directory ./neng/t700/1533837600
  563.    35 files in directory ./neng/uv200_stream/1533837600
  564.    37 files in directory ./neng/cape/1533837600
  565.    35 files in directory ./neng/uv250_stream/1533837600
  566.    37 files in directory ./neng/uv700_stream/1533837600
  567.    37 files in directory ./neng/apparent_temperature_f/1533837600
  568.    37 files in directory ./neng/rh850/1533837600
  569.    37 files in directory ./neng/pwat/1533837600
  570.    29 files in directory ./neng/uv850_stream/1533837600
  571.    36 files in directory ./neng/refc_ptype/1533837600
  572.    37 files in directory ./kansas/rh925/1533837600
  573.    37 files in directory ./kansas/rh2m/1533837600
  574.    37 files in directory ./kansas/gust_mph/1533837600
  575.    37 files in directory ./kansas/t500/1533837600
  576.    37 files in directory ./kansas/t2m_f/1533837600
  577.    37 files in directory ./kansas/uv500_stream/1533837600
  578.    37 files in directory ./kansas/dew2m_f/1533837600
  579.    37 files in directory ./kansas/shear_850v200/1533837600
  580.    37 files in directory ./kansas/wnd10m_stream/1533837600
  581.    36 files in directory ./kansas/uv300_stream/1533837600
  582.    37 files in directory ./kansas/t925/1533837600
  583.    37 files in directory ./kansas/rh200/1533837600
  584.    37 files in directory ./kansas/rh300/1533837600
  585.    37 files in directory ./kansas/gust_kt/1533837600
  586.    37 files in directory ./kansas/rh500/1533837600
  587.    37 files in directory ./kansas/rh700/1533837600
  588.    37 files in directory ./kansas/t850/1533837600
  589.    37 files in directory ./kansas/t300/1533837600
  590.    37 files in directory ./kansas/t700/1533837600
  591.    36 files in directory ./kansas/uv200_stream/1533837600
  592.    37 files in directory ./kansas/cape/1533837600
  593.    37 files in directory ./kansas/uv250_stream/1533837600
  594.    36 files in directory ./kansas/uv700_stream/1533837600
  595.    37 files in directory ./kansas/apparent_temperature_f/1533837600
  596.    37 files in directory ./kansas/rh850/1533837600
  597.    37 files in directory ./kansas/pwat/1533837600
  598.    32 files in directory ./kansas/uv850_stream/1533837600
  599.    30 files in directory ./kansas/refc_ptype/1533837600
  600.    37 files in directory ./ontario/z500_barbs/1533837600
  601.    37 files in directory ./ontario/rh925/1533837600
  602.    37 files in directory ./ontario/rh2m/1533837600
  603.    37 files in directory ./ontario/gust_mph/1533837600
  604.    37 files in directory ./ontario/t500/1533837600
  605.    37 files in directory ./ontario/t2m_f/1533837600
  606.    37 files in directory ./ontario/uv500_stream/1533837600
  607.    37 files in directory ./ontario/dew2m_f/1533837600
  608.    37 files in directory ./ontario/shear_850v200/1533837600
  609.    37 files in directory ./ontario/z500/1533837600
  610.    37 files in directory ./ontario/wnd10m_stream/1533837600
  611.    37 files in directory ./ontario/uv300_stream/1533837600
  612.    37 files in directory ./ontario/t925/1533837600
  613.    37 files in directory ./ontario/rh200/1533837600
  614.    37 files in directory ./ontario/rh300/1533837600
  615.    37 files in directory ./ontario/gust_kt/1533837600
  616.    37 files in directory ./ontario/rh500/1533837600
  617.    37 files in directory ./ontario/rh700/1533837600
  618.    37 files in directory ./ontario/t850/1533837600
  619.    37 files in directory ./ontario/t300/1533837600
  620.    37 files in directory ./ontario/t700/1533837600
  621.    37 files in directory ./ontario/uv200_stream/1533837600
  622.    37 files in directory ./ontario/cape/1533837600
  623.    37 files in directory ./ontario/uv250_stream/1533837600
  624.    37 files in directory ./ontario/uv700_stream/1533837600
  625.    37 files in directory ./ontario/apparent_temperature_f/1533837600
  626.    37 files in directory ./ontario/rh850/1533837600
  627.    37 files in directory ./ontario/pwat/1533837600
  628.    37 files in directory ./ontario/uv850_stream/1533837600
  629.    37 files in directory ./ontario/refc_ptype/1533837600
  630.    37 files in directory ./atlanta/rh925/1533837600
  631.    37 files in directory ./atlanta/rh2m/1533837600
  632.    37 files in directory ./atlanta/gust_mph/1533837600
  633.    37 files in directory ./atlanta/t500/1533837600
  634.    37 files in directory ./atlanta/t2m_f/1533837600
  635.    37 files in directory ./atlanta/dew2m_f/1533837600
  636.    37 files in directory ./atlanta/wnd10m_stream/1533837600
  637.    37 files in directory ./atlanta/t925/1533837600
  638.    37 files in directory ./atlanta/rh200/1533837600
  639.    37 files in directory ./atlanta/rh300/1533837600
  640.    37 files in directory ./atlanta/gust_kt/1533837600
  641.    37 files in directory ./atlanta/rh500/1533837600
  642.    37 files in directory ./atlanta/rh700/1533837600
  643.    37 files in directory ./atlanta/t850/1533837600
  644.    37 files in directory ./atlanta/t300/1533837600
  645.    37 files in directory ./atlanta/t700/1533837600
  646.    37 files in directory ./atlanta/cape/1533837600
  647.    35 files in directory ./atlanta/uv700_stream/1533837600
  648.    37 files in directory ./atlanta/apparent_temperature_f/1533837600
  649.    37 files in directory ./atlanta/rh850/1533837600
  650.    37 files in directory ./atlanta/pwat/1533837600
  651.    37 files in directory ./atlanta/uv850_stream/1533837600
  652.    37 files in directory ./atlanta/refc_ptype/1533837600
  653.    37 files in directory ./central/z500_barbs/1533837600
  654.    37 files in directory ./central/rh925/1533837600
  655.    37 files in directory ./central/rh2m/1533837600
  656.    37 files in directory ./central/gust_mph/1533837600
  657.    37 files in directory ./central/t500/1533837600
  658.    37 files in directory ./central/t2m_f/1533837600
  659.    37 files in directory ./central/uv500_stream/1533837600
  660.    37 files in directory ./central/dew2m_f/1533837600
  661.    37 files in directory ./central/shear_850v200/1533837600
  662.    37 files in directory ./central/z500/1533837600
  663.    37 files in directory ./central/wnd10m_stream/1533837600
  664.    37 files in directory ./central/uv300_stream/1533837600
  665.    37 files in directory ./central/t925/1533837600
  666.    37 files in directory ./central/rh200/1533837600
  667.    37 files in directory ./central/rh300/1533837600
  668.    37 files in directory ./central/gust_kt/1533837600
  669.    37 files in directory ./central/rh500/1533837600
  670.    37 files in directory ./central/rh700/1533837600
  671.    37 files in directory ./central/t850/1533837600
  672.    37 files in directory ./central/t300/1533837600
  673.    37 files in directory ./central/t700/1533837600
  674.    37 files in directory ./central/uv200_stream/1533837600
  675.    37 files in directory ./central/cape/1533837600
  676.    37 files in directory ./central/uv250_stream/1533837600
  677.    37 files in directory ./central/uv700_stream/1533837600
  678.    37 files in directory ./central/apparent_temperature_f/1533837600
  679.    37 files in directory ./central/rh850/1533837600
  680.    37 files in directory ./central/pwat/1533837600
  681.    37 files in directory ./central/uv850_stream/1533837600
  682.    37 files in directory ./central/refc_ptype/1533837600
  683.    37 files in directory ./nyc/rh925/1533837600
  684.    37 files in directory ./nyc/rh2m/1533837600
  685.    37 files in directory ./nyc/gust_mph/1533837600
  686.    37 files in directory ./nyc/t500/1533837600
  687.    37 files in directory ./nyc/t2m_f/1533837600
  688.    37 files in directory ./nyc/dew2m_f/1533837600
  689.    37 files in directory ./nyc/wnd10m_stream/1533837600
  690.    37 files in directory ./nyc/t925/1533837600
  691.    37 files in directory ./nyc/rh200/1533837600
  692.    37 files in directory ./nyc/rh300/1533837600
  693.    37 files in directory ./nyc/gust_kt/1533837600
  694.    37 files in directory ./nyc/rh500/1533837600
  695.    37 files in directory ./nyc/rh700/1533837600
  696.    37 files in directory ./nyc/t850/1533837600
  697.    37 files in directory ./nyc/t300/1533837600
  698.    37 files in directory ./nyc/t700/1533837600
  699.    37 files in directory ./nyc/cape/1533837600
  700.    37 files in directory ./nyc/uv700_stream/1533837600
  701.    37 files in directory ./nyc/apparent_temperature_f/1533837600
  702.    37 files in directory ./nyc/rh850/1533837600
  703.    37 files in directory ./nyc/pwat/1533837600
  704.    37 files in directory ./nyc/uv850_stream/1533837600
  705.    37 files in directory ./nyc/refc_ptype/1533837600
  706.    37 files in directory ./nw/z500_barbs/1533837600
  707.    37 files in directory ./nw/rh925/1533837600
  708.    37 files in directory ./nw/rh2m/1533837600
  709.    37 files in directory ./nw/gust_mph/1533837600
  710.    37 files in directory ./nw/t500/1533837600
  711.    37 files in directory ./nw/t2m_f/1533837600
  712.    29 files in directory ./nw/uv500_stream/1533837600
  713.    37 files in directory ./nw/dew2m_f/1533837600
  714.    26 files in directory ./nw/shear_850v200/1533837600
  715.    37 files in directory ./nw/z500/1533837600
  716.    33 files in directory ./nw/wnd10m_stream/1533837600
  717.    34 files in directory ./nw/uv300_stream/1533837600
  718.    37 files in directory ./nw/t925/1533837600
  719.    37 files in directory ./nw/rh200/1533837600
  720.    37 files in directory ./nw/rh300/1533837600
  721.    37 files in directory ./nw/gust_kt/1533837600
  722.    37 files in directory ./nw/rh500/1533837600
  723.    37 files in directory ./nw/rh700/1533837600
  724.    37 files in directory ./nw/t850/1533837600
  725.    37 files in directory ./nw/t300/1533837600
  726.    37 files in directory ./nw/t700/1533837600
  727.    29 files in directory ./nw/uv200_stream/1533837600
  728.    37 files in directory ./nw/cape/1533837600
  729.    28 files in directory ./nw/uv250_stream/1533837600
  730.    34 files in directory ./nw/uv700_stream/1533837600
  731.    37 files in directory ./nw/apparent_temperature_f/1533837600
  732.    37 files in directory ./nw/rh850/1533837600
  733.    37 files in directory ./nw/pwat/1533837600
  734.    37 files in directory ./nw/uv850_stream/1533837600
  735.    28 files in directory ./nw/refc_ptype/1533837600
  736.    37 files in directory ./sanfran/rh925/1533837600
  737.    37 files in directory ./sanfran/rh2m/1533837600
  738.    37 files in directory ./sanfran/gust_mph/1533837600
  739.    37 files in directory ./sanfran/t500/1533837600
  740.    37 files in directory ./sanfran/t2m_f/1533837600
  741.    37 files in directory ./sanfran/dew2m_f/1533837600
  742.    37 files in directory ./sanfran/wnd10m_stream/1533837600
  743.    37 files in directory ./sanfran/t925/1533837600
  744.    37 files in directory ./sanfran/rh200/1533837600
  745.    37 files in directory ./sanfran/rh300/1533837600
  746.    37 files in directory ./sanfran/gust_kt/1533837600
  747.    37 files in directory ./sanfran/rh500/1533837600
  748.    37 files in directory ./sanfran/rh700/1533837600
  749.    37 files in directory ./sanfran/t850/1533837600
  750.    37 files in directory ./sanfran/t300/1533837600
  751.    37 files in directory ./sanfran/t700/1533837600
  752.    37 files in directory ./sanfran/cape/1533837600
  753.    37 files in directory ./sanfran/uv700_stream/1533837600
  754.    37 files in directory ./sanfran/apparent_temperature_f/1533837600
  755.    37 files in directory ./sanfran/rh850/1533837600
  756.    37 files in directory ./sanfran/pwat/1533837600
  757.    37 files in directory ./sanfran/uv850_stream/1533837600
  758.    36 files in directory ./sanfran/refc_ptype/1533837600
  759.    37 files in directory ./norcal/rh925/1533837600
  760.    37 files in directory ./norcal/rh2m/1533837600
  761.    37 files in directory ./norcal/gust_mph/1533837600
  762.    37 files in directory ./norcal/t500/1533837600
  763.    37 files in directory ./norcal/t2m_f/1533837600
  764.    36 files in directory ./norcal/uv500_stream/1533837600
  765.    37 files in directory ./norcal/dew2m_f/1533837600
  766.    37 files in directory ./norcal/wnd10m_stream/1533837600
  767.    34 files in directory ./norcal/uv300_stream/1533837600
  768.    37 files in directory ./norcal/t925/1533837600
  769.    37 files in directory ./norcal/rh200/1533837600
  770.    37 files in directory ./norcal/rh300/1533837600
  771.    37 files in directory ./norcal/gust_kt/1533837600
  772.    37 files in directory ./norcal/rh500/1533837600
  773.    37 files in directory ./norcal/rh700/1533837600
  774.    37 files in directory ./norcal/t850/1533837600
  775.    37 files in directory ./norcal/t300/1533837600
  776.    37 files in directory ./norcal/t700/1533837600
  777.    32 files in directory ./norcal/uv200_stream/1533837600
  778.    37 files in directory ./norcal/cape/1533837600
  779.    37 files in directory ./norcal/uv250_stream/1533837600
  780.    37 files in directory ./norcal/uv700_stream/1533837600
  781.    37 files in directory ./norcal/apparent_temperature_f/1533837600
  782.    37 files in directory ./norcal/rh850/1533837600
  783.    37 files in directory ./norcal/pwat/1533837600
  784.    37 files in directory ./norcal/uv850_stream/1533837600
  785.    37 files in directory ./norcal/refc_ptype/1533837600
  786.    37 files in directory ./nc/rh925/1533837600
  787.    37 files in directory ./nc/rh2m/1533837600
  788.    37 files in directory ./nc/gust_mph/1533837600
  789.    37 files in directory ./nc/t500/1533837600
  790.    37 files in directory ./nc/t2m_f/1533837600
  791.    32 files in directory ./nc/uv500_stream/1533837600
  792.    37 files in directory ./nc/dew2m_f/1533837600
  793.    34 files in directory ./nc/shear_850v200/1533837600
  794.    37 files in directory ./nc/wnd10m_stream/1533837600
  795.    30 files in directory ./nc/uv300_stream/1533837600
  796.    37 files in directory ./nc/t925/1533837600
  797.    37 files in directory ./nc/rh200/1533837600
  798.    37 files in directory ./nc/rh300/1533837600
  799.    37 files in directory ./nc/gust_kt/1533837600
  800.    37 files in directory ./nc/rh500/1533837600
  801.    37 files in directory ./nc/rh700/1533837600
  802.    37 files in directory ./nc/t850/1533837600
  803.    37 files in directory ./nc/t300/1533837600
  804.    37 files in directory ./nc/t700/1533837600
  805.    27 files in directory ./nc/uv200_stream/1533837600
  806.    37 files in directory ./nc/cape/1533837600
  807.    33 files in directory ./nc/uv250_stream/1533837600
  808.    20 files in directory ./nc/uv700_stream/1533837600
  809.    37 files in directory ./nc/apparent_temperature_f/1533837600
  810.    37 files in directory ./nc/rh850/1533837600
  811.    37 files in directory ./nc/pwat/1533837600
  812.    33 files in directory ./nc/uv850_stream/1533837600
  813.    27 files in directory ./nc/refc_ptype/1533837600
  814.    37 files in directory ./chi/rh925/1533837600
  815.    37 files in directory ./chi/rh2m/1533837600
  816.    37 files in directory ./chi/gust_mph/1533837600
  817.    37 files in directory ./chi/t500/1533837600
  818.    37 files in directory ./chi/t2m_f/1533837600
  819.    37 files in directory ./chi/dew2m_f/1533837600
  820.    37 files in directory ./chi/wnd10m_stream/1533837600
  821.    37 files in directory ./chi/t925/1533837600
  822.    37 files in directory ./chi/rh200/1533837600
  823.    37 files in directory ./chi/rh300/1533837600
  824.    37 files in directory ./chi/gust_kt/1533837600
  825.    37 files in directory ./chi/rh500/1533837600
  826.    37 files in directory ./chi/rh700/1533837600
  827.    37 files in directory ./chi/t850/1533837600
  828.    37 files in directory ./chi/t300/1533837600
  829.    37 files in directory ./chi/t700/1533837600
  830.    37 files in directory ./chi/cape/1533837600
  831.    36 files in directory ./chi/uv700_stream/1533837600
  832.    37 files in directory ./chi/apparent_temperature_f/1533837600
  833.    37 files in directory ./chi/rh850/1533837600
  834.    37 files in directory ./chi/pwat/1533837600
  835.    36 files in directory ./chi/uv850_stream/1533837600
  836.    36 files in directory ./chi/refc_ptype/1533837600
  837.    37 files in directory ./la/rh925/1533837600
  838.    37 files in directory ./la/rh2m/1533837600
  839.    37 files in directory ./la/gust_mph/1533837600
  840.    37 files in directory ./la/t500/1533837600
  841.    37 files in directory ./la/t2m_f/1533837600
  842.    37 files in directory ./la/dew2m_f/1533837600
  843.    37 files in directory ./la/wnd10m_stream/1533837600
  844.    37 files in directory ./la/t925/1533837600
  845.    37 files in directory ./la/rh200/1533837600
  846.    37 files in directory ./la/rh300/1533837600
  847.    37 files in directory ./la/gust_kt/1533837600
  848.    37 files in directory ./la/rh500/1533837600
  849.    37 files in directory ./la/rh700/1533837600
  850.    37 files in directory ./la/t850/1533837600
  851.    37 files in directory ./la/t300/1533837600
  852.    37 files in directory ./la/t700/1533837600
  853.    37 files in directory ./la/cape/1533837600
  854.    36 files in directory ./la/uv700_stream/1533837600
  855.    37 files in directory ./la/apparent_temperature_f/1533837600
  856.    37 files in directory ./la/rh850/1533837600
  857.    37 files in directory ./la/pwat/1533837600
  858.    37 files in directory ./la/uv850_stream/1533837600
  859.    37 files in directory ./la/refc_ptype/1533837600
  860.    37 files in directory ./phoenix/rh925/1533837600
  861.    37 files in directory ./phoenix/rh2m/1533837600
  862.    37 files in directory ./phoenix/gust_mph/1533837600
  863.    37 files in directory ./phoenix/t500/1533837600
  864.    37 files in directory ./phoenix/t2m_f/1533837600
  865.    37 files in directory ./phoenix/dew2m_f/1533837600
  866.    37 files in directory ./phoenix/wnd10m_stream/1533837600
  867.    37 files in directory ./phoenix/t925/1533837600
  868.    37 files in directory ./phoenix/rh200/1533837600
  869.    37 files in directory ./phoenix/rh300/1533837600
  870.    37 files in directory ./phoenix/gust_kt/1533837600
  871.    37 files in directory ./phoenix/rh500/1533837600
  872.    37 files in directory ./phoenix/rh700/1533837600
  873.    37 files in directory ./phoenix/t850/1533837600
  874.    37 files in directory ./phoenix/t300/1533837600
  875.    37 files in directory ./phoenix/t700/1533837600
  876.    37 files in directory ./phoenix/cape/1533837600
  877.    37 files in directory ./phoenix/uv700_stream/1533837600
  878.    37 files in directory ./phoenix/apparent_temperature_f/1533837600
  879.    37 files in directory ./phoenix/rh850/1533837600
  880.    37 files in directory ./phoenix/pwat/1533837600
  881.    36 files in directory ./phoenix/uv850_stream/1533837600
  882.    37 files in directory ./phoenix/refc_ptype/1533837600
  883.    37 files in directory ./ohio/rh925/1533837600
  884.    37 files in directory ./ohio/rh2m/1533837600
  885.    37 files in directory ./ohio/gust_mph/1533837600
  886.    37 files in directory ./ohio/t500/1533837600
  887.    37 files in directory ./ohio/t2m_f/1533837600
  888.    37 files in directory ./ohio/uv500_stream/1533837600
  889.    37 files in directory ./ohio/dew2m_f/1533837600
  890.    37 files in directory ./ohio/shear_850v200/1533837600
  891.    37 files in directory ./ohio/wnd10m_stream/1533837600
  892.    36 files in directory ./ohio/uv300_stream/1533837600
  893.    37 files in directory ./ohio/t925/1533837600
  894.    37 files in directory ./ohio/rh200/1533837600
  895.    37 files in directory ./ohio/rh300/1533837600
  896.    37 files in directory ./ohio/gust_kt/1533837600
  897.    37 files in directory ./ohio/rh500/1533837600
  898.    37 files in directory ./ohio/rh700/1533837600
  899.    37 files in directory ./ohio/t850/1533837600
  900.    37 files in directory ./ohio/t300/1533837600
  901.    37 files in directory ./ohio/t700/1533837600
  902.    36 files in directory ./ohio/uv200_stream/1533837600
  903.    37 files in directory ./ohio/cape/1533837600
  904.    37 files in directory ./ohio/uv250_stream/1533837600
  905.    35 files in directory ./ohio/uv700_stream/1533837600
  906.    37 files in directory ./ohio/apparent_temperature_f/1533837600
  907.    37 files in directory ./ohio/rh850/1533837600
  908.    37 files in directory ./ohio/pwat/1533837600
  909.    37 files in directory ./ohio/uv850_stream/1533837600
  910.    33 files in directory ./ohio/refc_ptype/1533837600
  911.    37 files in directory ./socal/rh925/1533837600
  912.    37 files in directory ./socal/rh2m/1533837600
  913.    37 files in directory ./socal/gust_mph/1533837600
  914.    37 files in directory ./socal/t500/1533837600
  915.    37 files in directory ./socal/t2m_f/1533837600
  916.    37 files in directory ./socal/uv500_stream/1533837600
  917.    37 files in directory ./socal/dew2m_f/1533837600
  918.    37 files in directory ./socal/wnd10m_stream/1533837600
  919.    37 files in directory ./socal/uv300_stream/1533837600
  920.    37 files in directory ./socal/t925/1533837600
  921.    37 files in directory ./socal/rh200/1533837600
  922.    37 files in directory ./socal/rh300/1533837600
  923.    37 files in directory ./socal/gust_kt/1533837600
  924.    37 files in directory ./socal/rh500/1533837600
  925.    37 files in directory ./socal/rh700/1533837600
  926.    37 files in directory ./socal/t850/1533837600
  927.    37 files in directory ./socal/t300/1533837600
  928.    37 files in directory ./socal/t700/1533837600
  929.    37 files in directory ./socal/uv200_stream/1533837600
  930.    37 files in directory ./socal/cape/1533837600
  931.    37 files in directory ./socal/uv250_stream/1533837600
  932.    37 files in directory ./socal/uv700_stream/1533837600
  933.    37 files in directory ./socal/apparent_temperature_f/1533837600
  934.    37 files in directory ./socal/rh850/1533837600
  935.    37 files in directory ./socal/pwat/1533837600
  936.    36 files in directory ./socal/uv850_stream/1533837600
  937.    37 files in directory ./socal/refc_ptype/1533837600
  938.    37 files in directory ./west/z500_barbs/1533837600
  939.    37 files in directory ./west/rh925/1533837600
  940.    37 files in directory ./west/rh2m/1533837600
  941.    37 files in directory ./west/gust_mph/1533837600
  942.    37 files in directory ./west/t500/1533837600
  943.    37 files in directory ./west/t2m_f/1533837600
  944.    37 files in directory ./west/uv500_stream/1533837600
  945.    37 files in directory ./west/dew2m_f/1533837600
  946.    37 files in directory ./west/shear_850v200/1533837600
  947.    37 files in directory ./west/z500/1533837600
  948.    37 files in directory ./west/wnd10m_stream/1533837600
  949.    37 files in directory ./west/uv300_stream/1533837600
  950.    37 files in directory ./west/t925/1533837600
  951.    37 files in directory ./west/rh200/1533837600
  952.    37 files in directory ./west/rh300/1533837600
  953.    37 files in directory ./west/gust_kt/1533837600
  954.    37 files in directory ./west/rh500/1533837600
  955.    37 files in directory ./west/rh700/1533837600
  956.    37 files in directory ./west/t850/1533837600
  957.    37 files in directory ./west/t300/1533837600
  958.    37 files in directory ./west/t700/1533837600
  959.    37 files in directory ./west/uv200_stream/1533837600
  960.    37 files in directory ./west/cape/1533837600
  961.    37 files in directory ./west/uv250_stream/1533837600
  962.    37 files in directory ./west/uv700_stream/1533837600
  963.    37 files in directory ./west/apparent_temperature_f/1533837600
  964.    37 files in directory ./west/rh850/1533837600
  965.    37 files in directory ./west/pwat/1533837600
  966.    37 files in directory ./west/uv850_stream/1533837600
  967.    37 files in directory ./west/refc_ptype/1533837600
  968.    37 files in directory ./bahamas/rh925/1533837600
  969.    37 files in directory ./bahamas/rh2m/1533837600
  970.    37 files in directory ./bahamas/gust_mph/1533837600
  971.    37 files in directory ./bahamas/t500/1533837600
  972.    37 files in directory ./bahamas/t2m_f/1533837600
  973.    37 files in directory ./bahamas/uv500_stream/1533837600
  974.    37 files in directory ./bahamas/dew2m_f/1533837600
  975.    37 files in directory ./bahamas/shear_850v200/1533837600
  976.    36 files in directory ./bahamas/wnd10m_stream/1533837600
  977.    37 files in directory ./bahamas/uv300_stream/1533837600
  978.    37 files in directory ./bahamas/t925/1533837600
  979.    37 files in directory ./bahamas/rh200/1533837600
  980.    37 files in directory ./bahamas/rh300/1533837600
  981.    37 files in directory ./bahamas/gust_kt/1533837600
  982.    37 files in directory ./bahamas/rh500/1533837600
  983.    37 files in directory ./bahamas/rh700/1533837600
  984.    37 files in directory ./bahamas/t850/1533837600
  985.    37 files in directory ./bahamas/t300/1533837600
  986.    37 files in directory ./bahamas/t700/1533837600
  987.    36 files in directory ./bahamas/uv200_stream/1533837600
  988.    37 files in directory ./bahamas/cape/1533837600
  989.    36 files in directory ./bahamas/uv250_stream/1533837600
  990.    36 files in directory ./bahamas/uv700_stream/1533837600
  991.    37 files in directory ./bahamas/apparent_temperature_f/1533837600
  992.    37 files in directory ./bahamas/rh850/1533837600
  993.    37 files in directory ./bahamas/pwat/1533837600
  994.    29 files in directory ./bahamas/uv850_stream/1533837600
  995.    36 files in directory ./bahamas/refc_ptype/1533837600
  996.    37 files in directory ./east/z500_barbs/1533837600
  997.    37 files in directory ./east/rh925/1533837600
  998.    37 files in directory ./east/rh2m/1533837600
  999.    37 files in directory ./east/gust_mph/1533837600
  1000.    37 files in directory ./east/t500/1533837600
  1001.    37 files in directory ./east/t2m_f/1533837600
  1002.    37 files in directory ./east/uv500_stream/1533837600
  1003.    37 files in directory ./east/dew2m_f/1533837600
  1004.    35 files in directory ./east/shear_850v200/1533837600
  1005.    37 files in directory ./east/z500/1533837600
  1006.    31 files in directory ./east/wnd10m_stream/1533837600
  1007.    37 files in directory ./east/uv300_stream/1533837600
  1008.    37 files in directory ./east/t925/1533837600
  1009.    37 files in directory ./east/rh200/1533837600
  1010.    37 files in directory ./east/rh300/1533837600
  1011.    37 files in directory ./east/gust_kt/1533837600
  1012.    37 files in directory ./east/rh500/1533837600
  1013.    37 files in directory ./east/rh700/1533837600
  1014.    37 files in directory ./east/t850/1533837600
  1015.    37 files in directory ./east/t300/1533837600
  1016.    37 files in directory ./east/t700/1533837600
  1017.    37 files in directory ./east/uv200_stream/1533837600
  1018.    37 files in directory ./east/cape/1533837600
  1019.    37 files in directory ./east/uv250_stream/1533837600
  1020.    23 files in directory ./east/uv700_stream/1533837600
  1021.    37 files in directory ./east/apparent_temperature_f/1533837600
  1022.    37 files in directory ./east/rh850/1533837600
  1023.    37 files in directory ./east/pwat/1533837600
  1024.    33 files in directory ./east/uv850_stream/1533837600
  1025.    27 files in directory ./east/refc_ptype/1533837600
  1026.    37 files in directory ./minnesota/rh925/1533837600
  1027.    37 files in directory ./minnesota/rh2m/1533837600
  1028.    37 files in directory ./minnesota/gust_mph/1533837600
  1029.    37 files in directory ./minnesota/t500/1533837600
  1030.    37 files in directory ./minnesota/t2m_f/1533837600
  1031.    34 files in directory ./minnesota/uv500_stream/1533837600
  1032.    37 files in directory ./minnesota/dew2m_f/1533837600
  1033.    37 files in directory ./minnesota/shear_850v200/1533837600
  1034.    37 files in directory ./minnesota/wnd10m_stream/1533837600
  1035.    34 files in directory ./minnesota/uv300_stream/1533837600
  1036.    37 files in directory ./minnesota/t925/1533837600
  1037.    37 files in directory ./minnesota/rh200/1533837600
  1038.    37 files in directory ./minnesota/rh300/1533837600
  1039.    37 files in directory ./minnesota/gust_kt/1533837600
  1040.    37 files in directory ./minnesota/rh500/1533837600
  1041.    37 files in directory ./minnesota/rh700/1533837600
  1042.    37 files in directory ./minnesota/t850/1533837600
  1043.    37 files in directory ./minnesota/t300/1533837600
  1044.    37 files in directory ./minnesota/t700/1533837600
  1045.    37 files in directory ./minnesota/uv200_stream/1533837600
  1046.    37 files in directory ./minnesota/cape/1533837600
  1047.    36 files in directory ./minnesota/uv250_stream/1533837600
  1048.    36 files in directory ./minnesota/uv700_stream/1533837600
  1049.    37 files in directory ./minnesota/apparent_temperature_f/1533837600
  1050.    37 files in directory ./minnesota/rh850/1533837600
  1051.    37 files in directory ./minnesota/pwat/1533837600
  1052.    30 files in directory ./minnesota/uv850_stream/1533837600
  1053.    37 files in directory ./minnesota/refc_ptype/1533837600
  1054.    37 files in directory ./tampa/rh925/1533837600
  1055.    37 files in directory ./tampa/rh2m/1533837600
  1056.    37 files in directory ./tampa/gust_mph/1533837600
  1057.    37 files in directory ./tampa/t500/1533837600
  1058.    37 files in directory ./tampa/t2m_f/1533837600
  1059.    37 files in directory ./tampa/dew2m_f/1533837600
  1060.    37 files in directory ./tampa/wnd10m_stream/1533837600
  1061.    37 files in directory ./tampa/t925/1533837600
  1062.    37 files in directory ./tampa/rh200/1533837600
  1063.    37 files in directory ./tampa/rh300/1533837600
  1064.    37 files in directory ./tampa/gust_kt/1533837600
  1065.    37 files in directory ./tampa/rh500/1533837600
  1066.    37 files in directory ./tampa/rh700/1533837600
  1067.    37 files in directory ./tampa/t850/1533837600
  1068.    37 files in directory ./tampa/t300/1533837600
  1069.    37 files in directory ./tampa/t700/1533837600
  1070.    37 files in directory ./tampa/cape/1533837600
  1071.    36 files in directory ./tampa/uv700_stream/1533837600
  1072.    37 files in directory ./tampa/apparent_temperature_f/1533837600
  1073.    37 files in directory ./tampa/rh850/1533837600
  1074.    37 files in directory ./tampa/pwat/1533837600
  1075.    37 files in directory ./tampa/uv850_stream/1533837600
  1076.    36 files in directory ./tampa/refc_ptype/1533837600
  1077.    37 files in directory ./quebec/z500_barbs/1533837600
  1078.    37 files in directory ./quebec/rh925/1533837600
  1079.    37 files in directory ./quebec/rh2m/1533837600
  1080.    37 files in directory ./quebec/gust_mph/1533837600
  1081.    37 files in directory ./quebec/t500/1533837600
  1082.    37 files in directory ./quebec/t2m_f/1533837600
  1083.    37 files in directory ./quebec/uv500_stream/1533837600
  1084.    37 files in directory ./quebec/dew2m_f/1533837600
  1085.    37 files in directory ./quebec/shear_850v200/1533837600
  1086.    37 files in directory ./quebec/z500/1533837600
  1087.    37 files in directory ./quebec/wnd10m_stream/1533837600
  1088.    37 files in directory ./quebec/uv300_stream/1533837600
  1089.    37 files in directory ./quebec/t925/1533837600
  1090.    37 files in directory ./quebec/rh200/1533837600
  1091.    37 files in directory ./quebec/rh300/1533837600
  1092.    37 files in directory ./quebec/gust_kt/1533837600
  1093.    37 files in directory ./quebec/rh500/1533837600
  1094.    37 files in directory ./quebec/rh700/1533837600
  1095.    37 files in directory ./quebec/t850/1533837600
  1096.    37 files in directory ./quebec/t300/1533837600
  1097.    37 files in directory ./quebec/t700/1533837600
  1098.    37 files in directory ./quebec/uv200_stream/1533837600
  1099.    37 files in directory ./quebec/cape/1533837600
  1100.    37 files in directory ./quebec/uv250_stream/1533837600
  1101.    37 files in directory ./quebec/uv700_stream/1533837600
  1102.    37 files in directory ./quebec/apparent_temperature_f/1533837600
  1103.    37 files in directory ./quebec/rh850/1533837600
  1104.    37 files in directory ./quebec/pwat/1533837600
  1105.    37 files in directory ./quebec/uv850_stream/1533837600
  1106.    37 files in directory ./quebec/refc_ptype/1533837600
  1107.    37 files in directory ./nwatl/z500_barbs/1533837600
  1108.    37 files in directory ./nwatl/rh925/1533837600
  1109.    37 files in directory ./nwatl/rh2m/1533837600
  1110.    37 files in directory ./nwatl/gust_mph/1533837600
  1111.    37 files in directory ./nwatl/t500/1533837600
  1112.    37 files in directory ./nwatl/t2m_f/1533837600
  1113.    37 files in directory ./nwatl/uv500_stream/1533837600
  1114.    37 files in directory ./nwatl/dew2m_f/1533837600
  1115.    37 files in directory ./nwatl/shear_850v200/1533837600
  1116.    37 files in directory ./nwatl/z500/1533837600
  1117.    37 files in directory ./nwatl/wnd10m_stream/1533837600
  1118.    37 files in directory ./nwatl/uv300_stream/1533837600
  1119.    37 files in directory ./nwatl/t925/1533837600
  1120.    37 files in directory ./nwatl/rh200/1533837600
  1121.    37 files in directory ./nwatl/rh300/1533837600
  1122.    37 files in directory ./nwatl/gust_kt/1533837600
  1123.    37 files in directory ./nwatl/rh500/1533837600
  1124.    37 files in directory ./nwatl/rh700/1533837600
  1125.    37 files in directory ./nwatl/t850/1533837600
  1126.    37 files in directory ./nwatl/t300/1533837600
  1127.    37 files in directory ./nwatl/t700/1533837600
  1128.    37 files in directory ./nwatl/uv200_stream/1533837600
  1129.    37 files in directory ./nwatl/cape/1533837600
  1130.    37 files in directory ./nwatl/uv250_stream/1533837600
  1131.    37 files in directory ./nwatl/uv700_stream/1533837600
  1132.    37 files in directory ./nwatl/apparent_temperature_f/1533837600
  1133.    37 files in directory ./nwatl/rh850/1533837600
  1134.    37 files in directory ./nwatl/pwat/1533837600
  1135.    37 files in directory ./nwatl/uv850_stream/1533837600
  1136.    37 files in directory ./nwatl/refc_ptype/1533837600
  1137.    37 files in directory ./dc/rh925/1533837600
  1138.    37 files in directory ./dc/rh2m/1533837600
  1139.    37 files in directory ./dc/gust_mph/1533837600
  1140.    37 files in directory ./dc/t500/1533837600
  1141.    37 files in directory ./dc/t2m_f/1533837600
  1142.    37 files in directory ./dc/dew2m_f/1533837600
  1143.    37 files in directory ./dc/wnd10m_stream/1533837600
  1144.    37 files in directory ./dc/t925/1533837600
  1145.    37 files in directory ./dc/rh200/1533837600
  1146.    37 files in directory ./dc/rh300/1533837600
  1147.    37 files in directory ./dc/gust_kt/1533837600
  1148.    37 files in directory ./dc/rh500/1533837600
  1149.    37 files in directory ./dc/rh700/1533837600
  1150.    37 files in directory ./dc/t850/1533837600
  1151.    37 files in directory ./dc/t300/1533837600
  1152.    37 files in directory ./dc/t700/1533837600
  1153.    37 files in directory ./dc/cape/1533837600
  1154.    37 files in directory ./dc/uv700_stream/1533837600
  1155.    37 files in directory ./dc/apparent_temperature_f/1533837600
  1156.    37 files in directory ./dc/rh850/1533837600
  1157.    37 files in directory ./dc/pwat/1533837600
  1158.    37 files in directory ./dc/uv850_stream/1533837600
  1159.    36 files in directory ./dc/refc_ptype/1533837600
  1160.    37 files in directory ./ncentus/rh925/1533837600
  1161.    37 files in directory ./ncentus/rh2m/1533837600
  1162.    37 files in directory ./ncentus/gust_mph/1533837600
  1163.    37 files in directory ./ncentus/t500/1533837600
  1164.    37 files in directory ./ncentus/t2m_f/1533837600
  1165.    37 files in directory ./ncentus/uv500_stream/1533837600
  1166.    37 files in directory ./ncentus/dew2m_f/1533837600
  1167.    34 files in directory ./ncentus/shear_850v200/1533837600
  1168.    31 files in directory ./ncentus/wnd10m_stream/1533837600
  1169.    37 files in directory ./ncentus/uv300_stream/1533837600
  1170.    37 files in directory ./ncentus/t925/1533837600
  1171.    37 files in directory ./ncentus/rh200/1533837600
  1172.    37 files in directory ./ncentus/rh300/1533837600
  1173.    37 files in directory ./ncentus/gust_kt/1533837600
  1174.    37 files in directory ./ncentus/rh500/1533837600
  1175.    37 files in directory ./ncentus/rh700/1533837600
  1176.    37 files in directory ./ncentus/t850/1533837600
  1177.    37 files in directory ./ncentus/t300/1533837600
  1178.    37 files in directory ./ncentus/t700/1533837600
  1179.    37 files in directory ./ncentus/uv200_stream/1533837600
  1180.    37 files in directory ./ncentus/cape/1533837600
  1181.    37 files in directory ./ncentus/uv250_stream/1533837600
  1182.    37 files in directory ./ncentus/uv700_stream/1533837600
  1183.    37 files in directory ./ncentus/apparent_temperature_f/1533837600
  1184.    37 files in directory ./ncentus/rh850/1533837600
  1185.    37 files in directory ./ncentus/pwat/1533837600
  1186.    36 files in directory ./ncentus/uv850_stream/1533837600
  1187.    36 files in directory ./ncentus/refc_ptype/1533837600
  1188.    37 files in directory ./riogrande/rh925/1533837600
  1189.    37 files in directory ./riogrande/rh2m/1533837600
  1190.    37 files in directory ./riogrande/gust_mph/1533837600
  1191.    37 files in directory ./riogrande/t500/1533837600
  1192.    37 files in directory ./riogrande/t2m_f/1533837600
  1193.    36 files in directory ./riogrande/uv500_stream/1533837600
  1194.    37 files in directory ./riogrande/dew2m_f/1533837600
  1195.    37 files in directory ./riogrande/shear_850v200/1533837600
  1196.    33 files in directory ./riogrande/wnd10m_stream/1533837600
  1197.    37 files in directory ./riogrande/uv300_stream/1533837600
  1198.    37 files in directory ./riogrande/t925/1533837600
  1199.    37 files in directory ./riogrande/rh200/1533837600
  1200.    37 files in directory ./riogrande/rh300/1533837600
  1201.    37 files in directory ./riogrande/gust_kt/1533837600
  1202.    37 files in directory ./riogrande/rh500/1533837600
  1203.    37 files in directory ./riogrande/rh700/1533837600
  1204.    37 files in directory ./riogrande/t850/1533837600
  1205.    37 files in directory ./riogrande/t300/1533837600
  1206.    37 files in directory ./riogrande/t700/1533837600
  1207.    37 files in directory ./riogrande/uv200_stream/1533837600
  1208.    37 files in directory ./riogrande/cape/1533837600
  1209.    37 files in directory ./riogrande/uv250_stream/1533837600
  1210.    37 files in directory ./riogrande/uv700_stream/1533837600
  1211.    37 files in directory ./riogrande/apparent_temperature_f/1533837600
  1212.    37 files in directory ./riogrande/rh850/1533837600
  1213.    37 files in directory ./riogrande/pwat/1533837600
  1214.    36 files in directory ./riogrande/uv850_stream/1533837600
  1215.    36 files in directory ./riogrande/refc_ptype/1533837600
  1216.    33 files in directory ./ne/z500_barbs/1533837600
  1217.    37 files in directory ./ne/rh925/1533837600
  1218.    37 files in directory ./ne/rh2m/1533837600
  1219.    37 files in directory ./ne/gust_mph/1533837600
  1220.    37 files in directory ./ne/t500/1533837600
  1221.    37 files in directory ./ne/t2m_f/1533837600
  1222.    35 files in directory ./ne/uv500_stream/1533837600
  1223.    37 files in directory ./ne/dew2m_f/1533837600
  1224.    32 files in directory ./ne/shear_850v200/1533837600
  1225.    37 files in directory ./ne/z500/1533837600
  1226.    33 files in directory ./ne/wnd10m_stream/1533837600
  1227.    35 files in directory ./ne/uv300_stream/1533837600
  1228.    37 files in directory ./ne/t925/1533837600
  1229.    37 files in directory ./ne/rh200/1533837600
  1230.    37 files in directory ./ne/rh300/1533837600
  1231.    37 files in directory ./ne/gust_kt/1533837600
  1232.    37 files in directory ./ne/rh500/1533837600
  1233.    37 files in directory ./ne/rh700/1533837600
  1234.    37 files in directory ./ne/t850/1533837600
  1235.    37 files in directory ./ne/t300/1533837600
  1236.    37 files in directory ./ne/t700/1533837600
  1237.    34 files in directory ./ne/uv200_stream/1533837600
  1238.    37 files in directory ./ne/cape/1533837600
  1239.    36 files in directory ./ne/uv250_stream/1533837600
  1240.    33 files in directory ./ne/uv700_stream/1533837600
  1241.    37 files in directory ./ne/apparent_temperature_f/1533837600
  1242.    37 files in directory ./ne/rh850/1533837600
  1243.    37 files in directory ./ne/pwat/1533837600
  1244.    29 files in directory ./ne/uv850_stream/1533837600
  1245.    29 files in directory ./ne/refc_ptype/1533837600
  1246.    37 files in directory ./scentus/z500_barbs/1533837600
  1247.    37 files in directory ./scentus/rh925/1533837600
  1248.    37 files in directory ./scentus/rh2m/1533837600
  1249.    37 files in directory ./scentus/gust_mph/1533837600
  1250.    37 files in directory ./scentus/t500/1533837600
  1251.    37 files in directory ./scentus/t2m_f/1533837600
  1252.    35 files in directory ./scentus/uv500_stream/1533837600
  1253.    37 files in directory ./scentus/dew2m_f/1533837600
  1254.    36 files in directory ./scentus/shear_850v200/1533837600
  1255.    37 files in directory ./scentus/z500/1533837600
  1256.    31 files in directory ./scentus/wnd10m_stream/1533837600
  1257.    35 files in directory ./scentus/uv300_stream/1533837600
  1258.    37 files in directory ./scentus/t925/1533837600
  1259.    37 files in directory ./scentus/rh200/1533837600
  1260.    37 files in directory ./scentus/rh300/1533837600
  1261.    37 files in directory ./scentus/gust_kt/1533837600
  1262.    37 files in directory ./scentus/rh500/1533837600
  1263.    37 files in directory ./scentus/rh700/1533837600
  1264.    37 files in directory ./scentus/t850/1533837600
  1265.    37 files in directory ./scentus/t300/1533837600
  1266.    37 files in directory ./scentus/t700/1533837600
  1267.    36 files in directory ./scentus/uv200_stream/1533837600
  1268.    37 files in directory ./scentus/cape/1533837600
  1269.    36 files in directory ./scentus/uv250_stream/1533837600
  1270.    37 files in directory ./scentus/uv700_stream/1533837600
  1271.    37 files in directory ./scentus/apparent_temperature_f/1533837600
  1272.    37 files in directory ./scentus/rh850/1533837600
  1273.    37 files in directory ./scentus/pwat/1533837600
  1274.    33 files in directory ./scentus/uv850_stream/1533837600
  1275.    33 files in directory ./scentus/refc_ptype/1533837600
  1276.    37 files in directory ./arkansas/rh925/1533837600
  1277.    37 files in directory ./arkansas/rh2m/1533837600
  1278.    37 files in directory ./arkansas/gust_mph/1533837600
  1279.    37 files in directory ./arkansas/t500/1533837600
  1280.    37 files in directory ./arkansas/t2m_f/1533837600
  1281.    35 files in directory ./arkansas/uv500_stream/1533837600
  1282.    37 files in directory ./arkansas/dew2m_f/1533837600
  1283.    37 files in directory ./arkansas/shear_850v200/1533837600
  1284.    37 files in directory ./arkansas/wnd10m_stream/1533837600
  1285.    37 files in directory ./arkansas/uv300_stream/1533837600
  1286.    37 files in directory ./arkansas/t925/1533837600
  1287.    37 files in directory ./arkansas/rh200/1533837600
  1288.    37 files in directory ./arkansas/rh300/1533837600
  1289.    37 files in directory ./arkansas/gust_kt/1533837600
  1290.    37 files in directory ./arkansas/rh500/1533837600
  1291.    37 files in directory ./arkansas/rh700/1533837600
  1292.    37 files in directory ./arkansas/t850/1533837600
  1293.    37 files in directory ./arkansas/t300/1533837600
  1294.    37 files in directory ./arkansas/t700/1533837600
  1295.    36 files in directory ./arkansas/uv200_stream/1533837600
  1296.    37 files in directory ./arkansas/cape/1533837600
  1297.    33 files in directory ./arkansas/uv250_stream/1533837600
  1298.    37 files in directory ./arkansas/uv700_stream/1533837600
  1299.    37 files in directory ./arkansas/apparent_temperature_f/1533837600
  1300.    37 files in directory ./arkansas/rh850/1533837600
  1301.    37 files in directory ./arkansas/pwat/1533837600
  1302.    36 files in directory ./arkansas/uv850_stream/1533837600
  1303.    37 files in directory ./arkansas/refc_ptype/1533837600
  1304.    37 files in directory ./dallas/rh925/1533837600
  1305.    37 files in directory ./dallas/rh2m/1533837600
  1306.    37 files in directory ./dallas/gust_mph/1533837600
  1307.    37 files in directory ./dallas/t500/1533837600
  1308.    37 files in directory ./dallas/t2m_f/1533837600
  1309.    37 files in directory ./dallas/dew2m_f/1533837600
  1310.    37 files in directory ./dallas/wnd10m_stream/1533837600
  1311.    37 files in directory ./dallas/t925/1533837600
  1312.    37 files in directory ./dallas/rh200/1533837600
  1313.    37 files in directory ./dallas/rh300/1533837600
  1314.    37 files in directory ./dallas/gust_kt/1533837600
  1315.    37 files in directory ./dallas/rh500/1533837600
  1316.    37 files in directory ./dallas/rh700/1533837600
  1317.    37 files in directory ./dallas/t850/1533837600
  1318.    37 files in directory ./dallas/t300/1533837600
  1319.    37 files in directory ./dallas/t700/1533837600
  1320.    37 files in directory ./dallas/cape/1533837600
  1321.    37 files in directory ./dallas/uv700_stream/1533837600
  1322.    37 files in directory ./dallas/apparent_temperature_f/1533837600
  1323.    37 files in directory ./dallas/rh850/1533837600
  1324.    37 files in directory ./dallas/pwat/1533837600
  1325.    36 files in directory ./dallas/uv850_stream/1533837600
  1326.    35 files in directory ./dallas/refc_ptype/1533837600
RAW Paste Data
We use cookies for various purposes including analytics. By continuing to use Pastebin, you agree to our use of cookies as described in the Cookies Policy. OK, I Understand
 
Top